Flag for Argentina Weather past 2 weeks in Salta, Salta, Argentina

Now
54 °F

Mostly cloudy.


Feels Like: 54 °F
Forecast: 52 / 71 °F
Wind: No wind

Location: Salta Aerodrome

Current Time: Dec 23, 2014 at 12:01:32 AM

Latest Report: Dec 22, 2014 at 11:00 PM


Visibility: N/A

Pressure: 30.36 "Hg

Humidity: 94%

Dew point: 52 °F

Location of SaltaLocation

Historic Weather in Salta — Graph

°F

Salta temperature yesterday

Maximum temperature yesterday: 57 °F (at 12:00 AM)
Minimum temperature yesterday: 54 °F (at 4:00 AM)
Average temperature yesterday: 55 °F

Past Weeks' High & Low Weather Summary

 TemperatureHumidityPressure
High90 °F (Dec 10, 2:00 PM)100% (Dec 11, 3:00 AM)30.33 "Hg (Dec 11, 3:00 AM)
Low54 °F (Dec 22, 4:00 AM)35% (Dec 10, 1:00 PM)29.53 "Hg (Dec 20, 6:00 PM)
Average68 °F79%29.98 "Hg
* Reported Dec 7 10:00 PM — Dec 22 10:00 PM, Salta, Weather by CustomWeather, © 2014

Note: Actual official high and low records may vary slightly from our data, if they occured in-between our weather recording intervals... More about our weather records

Advertising

Salta weather history for previous 24 hours

 ConditionsComfort  
Time TempWeatherWind HumidityBarometerVisibility
10:00 PM
Dec 22
54 °FMostly cloudy.No wind94%30.33 "HgN/A
9:00 PM54 °FDrizzle. Mostly cloudy.2 mph94%30.30 "Hg4 mi
8:00 PM54 °FDrizzle. Mostly cloudy.No wind94%30.27 "Hg1 mi
7:00 PM55 °FDrizzle. More clouds than sun.2 mph88%30.24 "Hg1 mi
6:40 PM57 °FDrizzle. More clouds than sun.2 mph72%30.18 "Hg2 mi
6:00 PM57 °FMore clouds than sun.8 mph72%30.18 "Hg4 mi
5:00 PM57 °FMostly cloudy.2 mph77%30.18 "Hg5 mi
4:00 PM57 °FMostly cloudy.5 mph77%30.18 "HgN/A
3:00 PM57 °FMore clouds than sun.6 mph72%30.18 "HgN/A
2:00 PM57 °FMore clouds than sun.5 mph72%30.21 "HgN/A
12:00 PM55 °FLow clouds.9 mph77%30.24 "HgN/A
11:00 AM54 °FLow clouds.10 mph82%30.24 "Hg5 mi
10:00 AM55 °FLow clouds.9 mph82%30.24 "Hg5 mi
9:00 AM54 °FLow clouds.8 mph88%30.24 "Hg5 mi
8:00 AM54 °FDrizzle. Low clouds.7 mph88%30.21 "Hg3 mi
7:00 AM54 °FDrizzle. Cloudy.2 mph94%30.18 "Hg1 mi
6:35 AM54 °FLight rain. Cloudy.5 mph100%30.18 "Hg1 mi
6:00 AM54 °FDrizzle. Mostly cloudy.5 mph100%30.15 "Hg4 mi
5:00 AM54 °FDrizzle. Mostly cloudy.5 mph100%30.15 "Hg4 mi
4:00 AM54 °FDrizzle. Mostly cloudy.5 mph100%30.12 "Hg4 mi
3:00 AM55 °FDrizzle. Mostly cloudy.5 mph94%30.12 "Hg4 mi
2:00 AM55 °FMostly cloudy.5 mph94%30.12 "HgN/A
1:00 AM55 °FDrizzle. Mostly cloudy.6 mph100%30.12 "Hg4 mi
12:00 AM57 °FDrizzle. Mostly cloudy.7 mph94%30.09 "Hg4 mi
Weather by CustomWeather, © 2014

See weather overviewHow to use our weather pages